| time (UTC) | temp F | wind direction | speed MPH | gust MPH | rain 1hr in | rain 24hr in | rain mn in | humidity % | barometer mb |
| 20260502170517 | 60 | 335 | 0.0 | 4.0 | 0.00 | 0.00 | 0.00 | 53 | 1011.9 |
| 20260502163518 | 60 | 24 | 0.0 | 4.0 | 0.00 | 0.00 | 0.00 | 55 | 1012.4 |
| 20260502162516 | 59 | 322 | 1.0 | 5.0 | 0.00 | 0.00 | 0.00 | 58 | 1012.7 |
| 20260502161517 | 59 | 68 | 1.0 | 7.0 | 0.00 | 0.00 | 0.00 | 62 | 1012.6 |
| 20260502160516 | 59 | 210 | 0.0 | 2.0 | 0.00 | 0.00 | 0.00 | 65 | 1012.6 |
| 20260502151512 | 57 | 2 | 0.0 | 3.0 | 0.00 | 0.00 | 0.00 | 76 | 1012.5 |
| 20260502150512 | 56 | 212 | 0.0 | 3.0 | 0.00 | 0.00 | 0.00 | 75 | 1012.6 |
| 20260502122457 | 51 | 243 | 0.0 | 6.0 | 0.00 | 0.00 | 0.00 | 89 | 1012.7 |
| 20260502121458 | 50 | 219 | 0.0 | 3.0 | 0.00 | 0.00 | 0.00 | 90 | 1012.5 |
| 20260502120457 | 50 | 244 | 0.0 | 0.0 | 0.00 | 0.00 | 0.00 | 95 | 1012.4 |
| 20260502115457 | 49 | 244 | 0.0 | 0.0 | 0.00 | 0.00 | 0.00 | 95 | 1012.3 |
| 20260502114458 | 49 | 244 | 0.0 | 1.0 | 0.00 | 0.00 | 0.00 | 96 | 1012.4 |
| 20260502113459 | 48 | 245 | 0.0 | 3.0 | 0.00 | 0.00 | 0.00 | 97 | 1012.4 |
| 20260502112453 | 47 | 245 | 0.0 | 0.0 | 0.00 | 0.00 | 0.00 | 97 | 1012.3 |
| 20260502111453 | 47 | 245 | 0.0 | 0.0 | 0.00 | 0.00 | 0.00 | 97 | 1012.2 |
| 20260502110452 | 46 | 245 | 0.0 | 0.0 | 0.00 | 0.00 | 0.00 | 97 | 1012.1 |
| 20260502105449 | 46 | 245 | 0.0 | 0.0 | 0.00 | 0.00 | 0.00 | 97 | 1012.2 |
| 20260502104450 | 45 | 245 | 0.0 | 0.0 | 0.00 | 0.00 | 0.00 | 96 | 1012.2 |
| 20260502103450 | 45 | 245 | 0.0 | 0.0 | 0.00 | 0.00 | 0.00 | 96 | 1012.1 |
| 20260502100443 | 46 | 245 | 0.0 | 0.0 | 0.00 | 0.00 | 0.00 | 95 | 1011.6 |
| 20260502091437 | 47 | 245 | 0.0 | 0.0 | 0.00 | 0.00 | 0.00 | 92 | 1011.2 |
| 20260502090438 | 48 | 245 | 0.0 | 0.0 | 0.00 | 0.00 | 0.00 | 92 | 1011.6 |
| 20260502071428 | 50 | 154 | 0.0 | 0.0 | 0.00 | 0.00 | 0.00 | 86 | 1011.7 |
| 20260502070429 | 50 | 163 | 0.0 | 0.0 | 0.00 | 0.00 | 0.00 | 86 | 1011.5 |
| 20260502065426 | 50 | 146 | 0.0 | 0.0 | 0.00 | 0.00 | 0.00 | 85 | 1011.6 |
| 20260502063425 | 50 | 205 | 0.0 | 0.0 | 0.00 | 0.00 | 0.00 | 84 | 1011.7 |
| 20260502062425 | 51 | 205 | 0.0 | 0.0 | 0.00 | 0.00 | 0.00 | 84 | 1011.7 |
| 20260502061425 | 51 | 205 | 0.0 | 0.0 | 0.00 | 0.00 | 0.00 | 83 | 1011.9 |
| 20260502060425 | 51 | 205 | 0.0 | 0.0 | 0.00 | 0.00 | 0.00 | 81 | 1011.9 |
| 20260502055423 | 51 | 205 | 0.0 | 0.0 | 0.00 | 0.00 | 0.00 | 81 | 1012.4 |
| 20260502054422 | 51 | 239 | 0.0 | 0.0 | 0.00 | 0.00 | 0.00 | 81 | 1012.5 |
| 20260502053423 | 51 | 161 | 0.0 | 0.0 | 0.00 | 0.00 | 0.00 | 80 | 1012.4 |
| 20260502052423 | 52 | 161 | 0.0 | 0.0 | 0.00 | 0.00 | 0.00 | 79 | 1012.1 |
| 20260502051424 | 52 | 161 | 0.0 | 0.0 | 0.00 | 0.00 | 0.00 | 77 | 1012.0 |
| 20260502050423 | 52 | 151 | 0.0 | 0.0 | 0.00 | 0.00 | 0.00 | 77 | 1012.0 |
| 20260502045422 | 52 | 197 | 0.0 | 0.0 | 0.00 | 0.00 | 0.00 | 77 | 1012.0 |
| 20260502044423 | 52 | 238 | 0.0 | 0.0 | 0.00 | 0.00 | 0.00 | 76 | 1012.2 |
| 20260502041425 | 53 | 164 | 0.0 | 0.0 | 0.00 | 0.00 | 0.00 | 73 | 1011.8 |
| 20260502040422 | 53 | 186 | 0.0 | 0.0 | 0.00 | 0.00 | 0.00 | 72 | 1011.7 |
| 20260502035420 | 54 | 240 | 0.0 | 0.0 | 0.00 | 0.00 | 0.00 | 71 | 1011.8 |
| 20260502034419 | 54 | 191 | 0.0 | 3.0 | 0.00 | 0.00 | 0.00 | 70 | 1011.7 |
| 20260502033421 | 54 | 175 | 0.0 | 3.0 | 0.00 | 0.00 | 0.00 | 69 | 1011.7 |
| 20260502031420 | 54 | 181 | 0.0 | 3.0 | 0.00 | 0.00 | 0.00 | 69 | 1011.8 |
| 20260502030418 | 54 | 146 | 0.0 | 3.0 | 0.00 | 0.00 | 0.00 | 69 | 1011.9 |
| 20260502024418 | 51 | 197 | 0.0 | 4.0 | 0.00 | 0.00 | 0.00 | 78 | 1012.1 |
| 20260502023404 | 51 | 213 | 0.0 | 0.0 | 0.00 | 0.00 | 0.00 | 79 | 1011.9 |
| 20260502022404 | 50 | 214 | 0.0 | 0.0 | 0.00 | 0.00 | 0.00 | 81 | 1012.1 |
| 20260502021404 | 50 | 212 | 0.0 | 0.0 | 0.00 | 0.00 | 0.00 | 80 | 1012.1 |
| 20260502015404 | 49 | 212 | 0.0 | 0.0 | 0.00 | 0.00 | 0.00 | 83 | 1012.0 |
| 20260502014403 | 49 | 212 | 0.0 | 0.0 | 0.00 | 0.00 | 0.00 | 80 | 1011.9 |
| 20260502013402 | 49 | 212 | 0.0 | 0.0 | 0.00 | 0.00 | 0.00 | 79 | 1011.9 |
| 20260502012400 | 50 | 212 | 0.0 | 0.0 | 0.00 | 0.00 | 0.00 | 77 | 1011.7 |
| 20260502011358 | 51 | 212 | 0.0 | 0.0 | 0.00 | 0.00 | 0.00 | 77 | 1011.8 |
| 20260502010356 | 51 | 212 | 0.0 | 0.0 | 0.00 | 0.00 | 0.00 | 76 | 1011.5 |
| 20260502005357 | 52 | 212 | 0.0 | 0.0 | 0.00 | 0.00 | 0.00 | 71 | 1011.3 |
| 20260502004356 | 53 | 212 | 0.0 | 0.0 | 0.00 | 0.01 | 0.00 | 70 | 1011.4 |
| 20260502003358 | 54 | 212 | 0.0 | 0.0 | 0.00 | 0.02 | 0.00 | 69 | 1011.4 |
| 20260502002357 | 55 | 172 | 0.0 | 0.0 | 0.00 | 0.02 | 0.00 | 68 | 1011.2 |
| 20260502001358 | 56 | 172 | 0.0 | 0.0 | 0.00 | 0.02 | 0.00 | 67 | 1011.3 |
| 20260502000358 | 57 | 165 | 0.0 | 0.0 | 0.00 | 0.02 | 0.00 | 67 | 1011.1 |
| 20260501235358 | 58 | 143 | 0.0 | 0.0 | 0.00 | 0.02 | 0.00 | 58 | 1011.0 |
| 20260501234354 | 60 | 143 | 0.0 | 1.0 | 0.00 | 0.02 | 0.00 | 56 | 1010.9 |
| 20260501233355 | 60 | 142 | 0.0 | 2.0 | 0.00 | 0.02 | 0.00 | 55 | 1010.8 |
| 20260501232350 | 60 | 160 | 0.0 | 0.0 | 0.00 | 0.02 | 0.00 | 54 | 1010.8 |
| 20260501231349 | 60 | 195 | 0.0 | 0.0 | 0.00 | 0.02 | 0.00 | 54 | 1010.6 |
| 20260501230349 | 60 | 271 | 0.0 | 0.0 | 0.00 | 0.02 | 0.00 | 53 | 1010.6 |
| 20260501224348 | 62 | 248 | 0.0 | 2.0 | 0.00 | 0.02 | 0.00 | 49 | 1010.5 |
| 20260501223346 | 63 | 219 | 1.0 | 4.0 | 0.00 | 0.02 | 0.00 | 50 | 1010.5 |
| 20260501222348 | 64 | 261 | 2.0 | 7.0 | 0.00 | 0.02 | 0.00 | 45 | 1010.6 |
| 20260501221346 | 65 | 242 | 1.0 | 7.0 | 0.00 | 0.02 | 0.00 | 47 | 1010.5 |
| 20260501220348 | 64 | 153 | 1.0 | 6.0 | 0.00 | 0.02 | 0.00 | 47 | 1010.6 |
| 20260501215345 | 64 | 236 | 1.0 | 8.0 | 0.00 | 0.02 | 0.00 | 49 | 1010.7 |
| 20260501213346 | 64 | 263 | 1.0 | 7.0 | 0.00 | 0.02 | 0.00 | 49 | 1010.8 |
| 20260501211345 | 65 | 213 | 1.0 | 6.0 | 0.00 | 0.02 | 0.00 | 50 | 1010.8 |
| 20260501203342 | 65 | 248 | 0.0 | 1.0 | 0.00 | 0.02 | 0.00 | 49 | 1010.7 |
| 20260501202343 | 66 | 270 | 0.0 | 2.0 | 0.00 | 0.02 | 0.00 | 49 | 1010.7 |
| 20260501201342 | 65 | 257 | 1.0 | 4.0 | 0.00 | 0.02 | 0.00 | 52 | 1010.8 |
| 20260501200344 | 65 | 196 | 3.0 | 7.0 | 0.00 | 0.02 | 0.00 | 50 | 1010.9 |
| 20260501195343 | 66 | 276 | 1.0 | 6.0 | 0.00 | 0.02 | 0.00 | 51 | 1010.9 |
| 20260501193342 | 65 | 191 | 2.0 | 6.0 | 0.00 | 0.02 | 0.00 | 49 | 1011.1 |
| 20260501191341 | 65 | 266 | 1.0 | 6.0 | 0.00 | 0.02 | 0.00 | 51 | 1011.5 |
| 20260501190340 | 65 | 290 | 0.0 | 1.0 | 0.00 | 0.02 | 0.00 | 49 | 1011.5 |
| 20260501185342 | 66 | 82 | 0.0 | 1.0 | 0.00 | 0.02 | 0.00 | 48 | 1011.6 |
| 20260501184339 | 65 | 13 | 0.0 | 4.0 | 0.00 | 0.02 | 0.00 | 54 | 1011.8 |
| 20260501183341 | 65 | 315 | 1.0 | 4.0 | 0.00 | 0.02 | 0.00 | 56 | 1011.9 |
| 20260501182341 | 64 | 201 | 2.0 | 9.0 | 0.00 | 0.02 | 0.00 | 53 | 1012.0 |
| 20260501181339 | 64 | 279 | 0.0 | 3.0 | 0.00 | 0.02 | 0.00 | 52 | 1012.1 |
| 20260501175341 | 63 | 218 | 1.0 | 7.0 | 0.00 | 0.02 | 0.00 | 53 | 1011.9 |
| 20260501174337 | 62 | 223 | 1.0 | 6.0 | 0.00 | 0.02 | 0.00 | 59 | 1012.0 |
| 20260501173337 | 62 | 326 | 3.0 | 8.0 | 0.00 | 0.02 | 0.00 | 59 | 1012.2 |
| 20260501172338 | 62 | 268 | 1.0 | 5.0 | 0.00 | 0.02 | 0.00 | 54 | 1012.1 |